Regional Weather Roundup
Issued by NWS

Home | Current Version | Previous Version | Graphics & Text | Print | Product List | Glossary On
Versions: 1 2 3 4 5 6 7 8 9 10 11 12 13 14 15 16 17 18 19 20 21 22 23 24 25 26 27 28 29 30 31 32 33 34 35 36 37 38 39 40 41 42 43 44 45 46 47 48 49 50
579
ASUS44 KLIX 011801
RWRLA
LOUISIANA WEATHER ROUNDUP
NATIONAL WEATHER SERVICE NEW ORLEANS LA
100 PM CDT MON SEP 01 2014

NOTE: "FAIR" INDICATES FEW OR NO CLOUDS BELOW 12,000 FEET WITH NO
      SIGNIFICANT WEATHER AND/OR OBSTRUCTIONS TO VISIBILITY.
      SKY/WX - SKY CONDITION AND SIGNIFICANT WEATHER.
      TMP - AIR TEMPERATURE.    DP   - DEWPOINT TEMPERATURE.
      RH  - RELATIVE HUMIDITY.  PRES - PRESSURE.
      HX  - HEAT INDEX.         WCI  - WIND CHILL INDEX.

*  THESE STATIONS ARE NOT NWS OR FAA STATIONS AND ARE NOT UNDER
   NWS QUALITY CONTROL.

LAZ040-048-061>063-065-066-069-011900-
SOUTHEAST LOUISIANA

CITY           SKY/WX    TMP DP  RH WIND       PRES   REMARKS
N.O. AUDUBON   NOT AVBL
N.O. INTL ARPT PTSUNNY   90  74  59 S13       30.04F HX  99
6HR MIN TEMP:  79; 6HR MAX TEMP:  90; 6HR PCP:  0.01;

N.O. LAKEFRONT PTSUNNY   84  74  71 SE12      30.05F
6HR MIN TEMP:  80; 6HR MAX TEMP:  89;

N.O. DOWNTOWN* FAIR      88  75  66 S7        30.05F HX  97
6HR MIN TEMP:  81; 6HR MAX TEMP:  90; 6HR PCP:  0.13;

SLIDELL        PTSUNNY   88  76  67 S8        30.05F HX  99
6HR MIN TEMP:  75; 6HR MAX TEMP:  90; 6HR PCP: TRACE;

BATON ROUGE    PTSUNNY   89  73  59 SE13G22   30.02F HX  97
6HR MIN TEMP:  75; 6HR MAX TEMP:  91; 6HR PCP:  0.02;

BOOTHVILLE     PTSUNNY   88  77  69 SE12      30.06F HX 100
6HR MIN TEMP:  80; 6HR MAX TEMP:  88; 6HR PCP:  0.15;

BELLE CHASSE   PTSUNNY   90  71  53 S14       30.04F HX  96
6HR MIN TEMP:  82; 6HR MAX TEMP:  91;

BOGALUSA*      MOCLDY    90  73  57 S10G17    30.06F HX  98
6HR MIN TEMP:  73; 6HR MAX TEMP:  92;

GALLIANO*      NOT AVBL
NEW ROADS*     LGT RAIN  84  76  76 SE7       30.02F
6HR MIN TEMP:  75; 6HR MAX TEMP:  90; 6HR PCP:  0.08;

GONZALES*      FAIR      87  78  73 SE7       30.03F HX 100
6HR MIN TEMP:  75; 6HR MAX TEMP:  88;

HAMMOND*       NOT AVBL
HOUMA*         NOT AVBL
PORT FOURCHON* CLEAR     84  75  74 SE10G17   30.06F

$$

LAZ041-044-053-054-011900-
SOUTHWEST LOUISIANA

CITY           SKY/WX    TMP DP  RH WIND       PRES   REMARKS
LAKE CHARLES   PTSUNNY   90  76  63 S13       29.99F HX 101
6HR MIN TEMP:  77; 6HR MAX TEMP:  90;

LAFAYETTE      MOSUNNY   90  76  63 S9        30.01F HX 101
6HR MIN TEMP:  77; 6HR MAX TEMP:  90;

PATTERSON      MOSUNNY   90  81  74 SE14      30.05F HX 108
6HR MIN TEMP:  75; 6HR MAX TEMP:  90;

SALT POINT       N/A     91  78  65 S8        30.02S HX 106
6HR MIN TEMP:  82; 6HR MAX TEMP:  91; 6HR PCP:  0.04;

NEW IBERIA     MOSUNNY   90  76  63 S12       30.01F HX 101
6HR MIN TEMP:  77; 6HR MAX TEMP:  91;

CHENAULT AIRPK NOT AVBL

$$

LAZ027-028-011900-
CENTRAL LOUISIANA

CITY           SKY/WX    TMP DP  RH WIND       PRES   REMARKS
FORT POLK      PTSUNNY   88  74  63 SE13G18   30.00F HX  96
6HR MIN TEMP:  77; 6HR MAX TEMP:  90;

ALEXANDRIA INT MOSUNNY   89  74  60 S8G17     29.99F HX  98
6HR MIN TEMP:  75; 6HR MAX TEMP:  90;

ALEXANDRIA     MOSUNNY   91  75  59 S8        30.01F HX 101
6HR MIN TEMP:  74; 6HR MAX TEMP:  92;


$$

LAZ001-002-011900-
NORTHWEST LOUISIANA

CITY           SKY/WX    TMP DP  RH WIND       PRES   REMARKS
SHREVEPORT     MOSUNNY   92  71  50 S9        29.98F HX  98
6HR MIN TEMP:  76; 6HR MAX TEMP:  93;

BARKSDALE AFB  SUNNY     92  71  50 S10       29.99F HX  98
6HR MIN TEMP:  75; 6HR MAX TEMP:  92;

DTN SHREVEPORT PTSUNNY   90  72  55 SE6       29.99F HX  97
6HR MIN TEMP:  76; 6HR MAX TEMP:  90;


$$

LAZ014-016-011900-
NORTHEAST LOUISIANA

CITY           SKY/WX    TMP DP  RH WIND       PRES   REMARKS
MONROE         MOSUNNY   89  74  60 S9        30.03S HX  98
6HR MIN TEMP:  76; 6HR MAX TEMP:  90;

TALLULAH       MOSUNNY   90  74  59 S10       30.04F HX  99
6HR MIN TEMP:  75; 6HR MAX TEMP:  90;


$$




USA.gov is the U.S. government's official web portal to all federal, state and local government web resources and services.